Year,Month,Day,Hour,Minute,Value (Times are PST for temperature in C)
2018,05,29,00,00,10.40
2018,05,29,00,01,10.40
2018,05,29,00,02,10.40
2018,05,29,00,03,10.40
2018,05,29,00,04,10.40
2018,05,29,00,05,10.30
2018,05,29,00,06,10.30
2018,05,29,00,07,10.30
2018,05,29,00,08,10.30
2018,05,29,00,09,10.30
2018,05,29,00,10,10.30
2018,05,29,00,11,10.30
2018,05,29,00,12,10.20
2018,05,29,00,13,10.20
2018,05,29,00,14,10.20
2018,05,29,00,15,10.20
2018,05,29,00,16,10.20
2018,05,29,00,17,10.20
2018,05,29,00,18,10.20
2018,05,29,00,19,10.20
2018,05,29,00,20,10.20
2018,05,29,00,21,10.20
2018,05,29,00,22,10.10
2018,05,29,00,23,10.10
2018,05,29,00,24,10.10
2018,05,29,00,25,10.10
2018,05,29,00,26,10.10
2018,05,29,00,27,10.00
2018,05,29,00,28,10.00
2018,05,29,00,29,10.00
2018,05,29,00,30,10.00
2018,05,29,00,31,9.90
2018,05,29,00,32,9.90
2018,05,29,00,33,9.90
2018,05,29,00,34,9.90
2018,05,29,00,35,9.90
2018,05,29,00,36,9.80
2018,05,29,00,37,9.80
2018,05,29,00,38,9.80
2018,05,29,00,39,9.80
2018,05,29,00,40,9.80
2018,05,29,00,41,9.80
2018,05,29,00,42,9.80
2018,05,29,00,43,9.70
2018,05,29,00,44,9.70
2018,05,29,00,45,9.70
2018,05,29,00,46,9.70
2018,05,29,00,47,9.70
2018,05,29,00,48,9.70
2018,05,29,00,49,9.70
2018,05,29,00,50,9.70
2018,05,29,00,51,9.70
2018,05,29,00,52,9.70
2018,05,29,00,53,9.60
2018,05,29,00,54,9.60
2018,05,29,00,55,9.60
2018,05,29,00,56,9.60
2018,05,29,00,57,9.60
2018,05,29,00,58,9.60
2018,05,29,00,59,9.60
2018,05,29,01,00,9.60
2018,05,29,01,01,9.50
2018,05,29,01,02,9.50
2018,05,29,01,03,9.50
2018,05,29,01,04,9.50
2018,05,29,01,05,9.50
2018,05,29,01,06,9.50
2018,05,29,01,07,9.50
2018,05,29,01,08,9.40
2018,05,29,01,09,9.40
2018,05,29,01,10,9.40
2018,05,29,01,11,9.40
2018,05,29,01,12,9.40
2018,05,29,01,13,9.40
2018,05,29,01,14,9.40
2018,05,29,01,15,9.40
2018,05,29,01,16,9.40
2018,05,29,01,17,9.40
2018,05,29,01,18,9.40
2018,05,29,01,19,9.30
2018,05,29,01,20,9.30
2018,05,29,01,21,9.30
2018,05,29,01,22,9.30
2018,05,29,01,23,9.30
2018,05,29,01,24,9.30
2018,05,29,01,25,9.30
2018,05,29,01,26,9.30
2018,05,29,01,27,9.30
2018,05,29,01,28,9.30
2018,05,29,01,29,9.30
2018,05,29,01,30,9.30
2018,05,29,01,31,9.30
2018,05,29,01,32,9.30
2018,05,29,01,33,9.30
2018,05,29,01,34,9.30
2018,05,29,01,35,9.20
2018,05,29,01,36,9.20
2018,05,29,01,37,9.20
2018,05,29,01,38,9.20
2018,05,29,01,39,9.20
2018,05,29,01,40,9.20
2018,05,29,01,41,9.20
2018,05,29,01,42,9.20
2018,05,29,01,43,9.20
2018,05,29,01,44,9.20
2018,05,29,01,45,9.10
2018,05,29,01,46,9.10
2018,05,29,01,47,9.10
2018,05,29,01,48,9.10
2018,05,29,01,49,9.10
2018,05,29,01,50,9.00
2018,05,29,01,51,9.00
2018,05,29,01,52,9.00
2018,05,29,01,53,9.00
2018,05,29,01,54,8.90
2018,05,29,01,55,8.90
2018,05,29,01,56,8.90
2018,05,29,01,57,8.80
2018,05,29,01,58,8.80
2018,05,29,01,59,8.80
2018,05,29,02,00,8.80
2018,05,29,02,01,8.80
2018,05,29,02,02,8.70
2018,05,29,02,03,8.70
2018,05,29,02,04,8.70
2018,05,29,02,05,8.70
2018,05,29,02,06,8.70
2018,05,29,02,07,8.70
2018,05,29,02,08,8.70
2018,05,29,02,09,8.70
2018,05,29,02,10,8.70
2018,05,29,02,11,8.70
2018,05,29,02,12,8.70
2018,05,29,02,13,8.70
2018,05,29,02,14,8.70
2018,05,29,02,15,8.60
2018,05,29,02,16,8.60
2018,05,29,02,17,8.50
2018,05,29,02,18,8.50
2018,05,29,02,19,8.40
2018,05,29,02,20,8.40
2018,05,29,02,21,8.40
2018,05,29,02,22,8.40
2018,05,29,02,23,8.30
2018,05,29,02,24,8.30
2018,05,29,02,25,8.30
2018,05,29,02,26,8.30
2018,05,29,02,27,8.30
2018,05,29,02,28,8.30
2018,05,29,02,29,8.30
2018,05,29,02,30,8.30
2018,05,29,02,31,8.20
2018,05,29,02,32,8.20
2018,05,29,02,33,8.20
2018,05,29,02,34,8.10
2018,05,29,02,35,8.00
2018,05,29,02,36,8.00
2018,05,29,02,37,7.90
2018,05,29,02,38,7.90
2018,05,29,02,39,7.90
2018,05,29,02,40,7.80
2018,05,29,02,41,7.80
2018,05,29,02,42,7.80
2018,05,29,02,43,7.90
2018,05,29,02,44,7.90
2018,05,29,02,45,7.90
2018,05,29,02,46,7.90
2018,05,29,02,47,8.00
2018,05,29,02,48,8.00
2018,05,29,02,49,8.00
2018,05,29,02,50,8.00
2018,05,29,02,51,8.00
2018,05,29,02,52,8.00
2018,05,29,02,53,8.00
2018,05,29,02,54,8.00
2018,05,29,02,55,7.90
2018,05,29,02,56,7.80
2018,05,29,02,57,7.80
2018,05,29,02,58,7.80
2018,05,29,02,59,7.70
2018,05,29,03,00,7.70
2018,05,29,03,01,7.70
2018,05,29,03,02,7.60
2018,05,29,03,03,7.60
2018,05,29,03,04,7.60
2018,05,29,03,05,7.60
2018,05,29,03,06,7.60
2018,05,29,03,07,7.60
2018,05,29,03,08,7.60
2018,05,29,03,09,7.60
2018,05,29,03,10,7.60
2018,05,29,03,11,7.60
2018,05,29,03,12,7.60
2018,05,29,03,13,7.60
2018,05,29,03,14,7.60
2018,05,29,03,15,7.60
2018,05,29,03,16,7.50
2018,05,29,03,17,7.50
2018,05,29,03,18,7.40
2018,05,29,03,19,7.40
2018,05,29,03,20,7.30
2018,05,29,03,21,7.30
2018,05,29,03,22,7.20
2018,05,29,03,23,7.20
2018,05,29,03,24,7.10
2018,05,29,03,25,7.00
2018,05,29,03,26,7.00
2018,05,29,03,27,6.90
2018,05,29,03,28,6.80
2018,05,29,03,29,6.80
2018,05,29,03,30,6.80
2018,05,29,03,31,6.70
2018,05,29,03,32,6.70
2018,05,29,03,33,6.60
2018,05,29,03,34,6.60
2018,05,29,03,35,6.50
2018,05,29,03,36,6.50
2018,05,29,03,37,6.40
2018,05,29,03,38,6.40
2018,05,29,03,39,6.40
2018,05,29,03,40,6.30
2018,05,29,03,41,6.30
2018,05,29,03,42,6.30
2018,05,29,03,43,6.30
2018,05,29,03,44,6.20
2018,05,29,03,45,6.20
2018,05,29,03,46,6.20
2018,05,29,03,47,6.20
2018,05,29,03,48,6.10
2018,05,29,03,49,6.10
2018,05,29,03,50,6.10
2018,05,29,03,51,6.00
2018,05,29,03,52,6.00
2018,05,29,03,53,5.90
2018,05,29,03,54,5.90
2018,05,29,03,55,5.90
2018,05,29,03,56,5.80
2018,05,29,03,57,5.80
2018,05,29,03,58,5.80
2018,05,29,03,59,5.80
2018,05,29,04,00,5.80
2018,05,29,04,01,5.70
2018,05,29,04,02,5.70
2018,05,29,04,03,5.70
2018,05,29,04,04,5.70
2018,05,29,04,05,5.70
2018,05,29,04,06,5.60
2018,05,29,04,07,5.60
2018,05,29,04,08,5.60
2018,05,29,04,09,5.60
2018,05,29,04,10,5.50
2018,05,29,04,11,5.50
2018,05,29,04,12,5.50
2018,05,29,04,13,5.40
2018,05,29,04,14,5.40
2018,05,29,04,15,5.40
2018,05,29,04,16,5.40
2018,05,29,04,17,5.40
2018,05,29,04,18,5.30
2018,05,29,04,19,5.30
2018,05,29,04,20,5.30
2018,05,29,04,21,5.30
2018,05,29,04,22,5.30
2018,05,29,04,23,5.20
2018,05,29,04,24,5.20
2018,05,29,04,25,5.20
2018,05,29,04,26,5.20
2018,05,29,04,27,5.20
2018,05,29,04,28,5.20
2018,05,29,04,29,5.10
2018,05,29,04,30,5.10
2018,05,29,04,31,5.10
2018,05,29,04,32,5.10
2018,05,29,04,33,5.10
2018,05,29,04,34,5.10
2018,05,29,04,35,5.10
2018,05,29,04,36,5.10
2018,05,29,04,37,5.10
2018,05,29,04,38,5.10
2018,05,29,04,39,5.00
2018,05,29,04,40,5.00
2018,05,29,04,41,5.00
2018,05,29,04,42,5.00
2018,05,29,04,43,5.00
2018,05,29,04,44,5.00
2018,05,29,04,45,5.00
2018,05,29,04,46,4.90
2018,05,29,04,47,4.90
2018,05,29,04,48,4.90
2018,05,29,04,49,4.90
2018,05,29,04,50,4.90
2018,05,29,04,51,4.90
2018,05,29,04,52,4.80
2018,05,29,04,53,4.80
2018,05,29,04,54,4.80
2018,05,29,04,55,4.80
2018,05,29,04,56,4.80
2018,05,29,04,57,4.80
2018,05,29,04,58,4.80
2018,05,29,04,59,4.80
2018,05,29,05,00,4.80
2018,05,29,05,01,4.80
2018,05,29,05,02,4.80
2018,05,29,05,03,4.80
2018,05,29,05,04,4.80
2018,05,29,05,05,4.70
2018,05,29,05,06,4.70
2018,05,29,05,07,4.70
2018,05,29,05,08,4.70
2018,05,29,05,09,4.70
2018,05,29,05,10,4.70
2018,05,29,05,11,4.70
2018,05,29,05,12,4.70
2018,05,29,05,13,4.60
2018,05,29,05,14,4.60
2018,05,29,05,15,4.60
2018,05,29,05,16,4.60
2018,05,29,05,17,4.60
2018,05,29,05,18,4.60
2018,05,29,05,19,4.60
2018,05,29,05,20,4.60
2018,05,29,05,21,4.50
2018,05,29,05,22,4.50
2018,05,29,05,23,4.50
2018,05,29,05,24,4.50
2018,05,29,05,25,4.50
2018,05,29,05,26,4.50
2018,05,29,05,27,4.50
2018,05,29,05,28,4.50
2018,05,29,05,29,4.40
2018,05,29,05,30,4.40
2018,05,29,05,31,4.40
2018,05,29,05,32,4.40
2018,05,29,05,33,4.40
2018,05,29,05,34,4.40
2018,05,29,05,35,4.40
2018,05,29,05,36,4.40
2018,05,29,05,37,4.40
2018,05,29,05,38,4.40
2018,05,29,05,39,4.30
2018,05,29,05,40,4.30
2018,05,29,05,41,4.30
2018,05,29,05,42,4.30
2018,05,29,05,43,4.30
2018,05,29,05,44,4.30
2018,05,29,05,45,4.30
2018,05,29,05,46,4.30
2018,05,29,05,47,4.30
2018,05,29,05,48,4.30
2018,05,29,05,49,4.30
2018,05,29,05,50,4.30
2018,05,29,05,51,4.30
2018,05,29,05,52,4.30
2018,05,29,05,53,4.30
2018,05,29,05,54,4.30
2018,05,29,05,55,4.30
2018,05,29,05,56,4.30
2018,05,29,05,57,4.30
2018,05,29,05,58,4.30
2018,05,29,05,59,4.30
2018,05,29,06,00,4.30
2018,05,29,06,01,4.30
2018,05,29,06,02,4.30
2018,05,29,06,03,4.30
2018,05,29,06,04,4.30
2018,05,29,06,05,4.30
2018,05,29,06,06,4.30
2018,05,29,06,07,4.30
2018,05,29,06,08,4.30
2018,05,29,06,09,4.20
2018,05,29,06,10,4.20
2018,05,29,06,11,4.20
2018,05,29,06,12,4.20
2018,05,29,06,13,4.20
2018,05,29,06,14,4.20
2018,05,29,06,15,4.20
2018,05,29,06,16,4.20
2018,05,29,06,17,4.20
2018,05,29,06,18,4.20
2018,05,29,06,19,4.20
2018,05,29,06,20,4.20
2018,05,29,06,21,4.20
2018,05,29,06,22,4.20
2018,05,29,06,23,4.20
2018,05,29,06,24,4.20
2018,05,29,06,25,4.20
2018,05,29,06,26,4.20
2018,05,29,06,27,4.20
2018,05,29,06,28,4.20
2018,05,29,06,29,4.20
2018,05,29,06,30,4.20
2018,05,29,06,31,4.20
2018,05,29,06,32,4.20
2018,05,29,06,33,4.20
2018,05,29,06,34,4.20
2018,05,29,06,35,4.20
2018,05,29,06,36,4.20
2018,05,29,06,37,4.20
2018,05,29,06,38,4.20
2018,05,29,06,39,4.20
2018,05,29,06,40,4.20
2018,05,29,06,41,4.20
2018,05,29,06,42,4.20
2018,05,29,06,43,4.20
2018,05,29,06,44,4.20
2018,05,29,06,45,4.20
2018,05,29,06,46,4.30
2018,05,29,06,47,4.30
2018,05,29,06,48,4.30
2018,05,29,06,49,4.30
2018,05,29,06,50,4.30
2018,05,29,06,51,4.40
2018,05,29,06,52,4.40
2018,05,29,06,53,4.50
2018,05,29,06,54,4.50
2018,05,29,06,55,4.60
2018,05,29,06,56,4.60
2018,05,29,06,57,4.70
2018,05,29,06,58,4.70
2018,05,29,06,59,4.80
2018,05,29,07,00,4.90
2018,05,29,07,01,5.00
2018,05,29,07,02,5.10
2018,05,29,07,03,5.10
2018,05,29,07,04,5.20
2018,05,29,07,05,5.20
2018,05,29,07,06,5.30
2018,05,29,07,07,5.40
2018,05,29,07,08,5.40
2018,05,29,07,09,5.60
2018,05,29,07,10,5.60
2018,05,29,07,11,5.70
2018,05,29,07,12,5.80
2018,05,29,07,13,5.90
2018,05,29,07,14,5.90
2018,05,29,07,15,6.00
2018,05,29,07,16,6.10
2018,05,29,07,17,6.10
2018,05,29,07,18,6.20
2018,05,29,07,19,6.30
2018,05,29,07,20,6.30
2018,05,29,07,21,6.30
2018,05,29,07,22,6.40
2018,05,29,07,23,6.50
2018,05,29,07,24,6.60
2018,05,29,07,25,6.70
2018,05,29,07,26,6.80
2018,05,29,07,27,6.90
2018,05,29,07,28,7.00
2018,05,29,07,29,7.00
2018,05,29,07,30,7.10
2018,05,29,07,31,7.10
2018,05,29,07,32,7.20
2018,05,29,07,33,7.20
2018,05,29,07,34,7.30
2018,05,29,07,35,7.30
2018,05,29,07,36,7.30
2018,05,29,07,37,7.40
2018,05,29,07,38,7.40
2018,05,29,07,39,7.50
2018,05,29,07,40,7.50
2018,05,29,07,41,7.60
2018,05,29,07,42,7.70
2018,05,29,07,43,7.70
2018,05,29,07,44,7.80
2018,05,29,07,45,7.80
2018,05,29,07,46,7.90
2018,05,29,07,47,7.90
2018,05,29,07,48,8.00
2018,05,29,07,49,8.00
2018,05,29,07,50,8.10
2018,05,29,07,51,8.10
2018,05,29,07,52,8.10
2018,05,29,07,53,8.20
2018,05,29,07,54,8.20
2018,05,29,07,55,8.20
2018,05,29,07,56,8.20
2018,05,29,07,57,8.20
2018,05,29,07,58,8.30
2018,05,29,07,59,8.30
2018,05,29,08,00,8.40
2018,05,29,08,01,8.40
2018,05,29,08,02,8.50
2018,05,29,08,03,8.60
2018,05,29,08,04,8.60
2018,05,29,08,05,8.60
2018,05,29,08,06,8.70
2018,05,29,08,07,8.70
2018,05,29,08,08,8.80
2018,05,29,08,09,8.80
2018,05,29,08,10,8.90
2018,05,29,08,11,8.90
2018,05,29,08,12,8.90
2018,05,29,08,13,9.00
2018,05,29,08,14,9.00
2018,05,29,08,15,9.10
2018,05,29,08,16,9.10
2018,05,29,08,17,9.20
2018,05,29,08,18,9.30
2018,05,29,08,19,9.30
2018,05,29,08,20,9.40
2018,05,29,08,21,9.50
2018,05,29,08,22,9.50
2018,05,29,08,23,9.60
2018,05,29,08,24,9.60
2018,05,29,08,25,9.60
2018,05,29,08,26,9.60
2018,05,29,08,27,9.60
2018,05,29,08,28,9.60
2018,05,29,08,29,9.60
2018,05,29,08,30,9.60
2018,05,29,08,31,9.70
2018,05,29,08,32,9.80
2018,05,29,08,33,9.90
2018,05,29,08,34,9.90
2018,05,29,08,35,9.90
2018,05,29,08,36,10.00
2018,05,29,08,37,10.00
2018,05,29,08,38,10.10
2018,05,29,08,39,10.10
2018,05,29,08,40,10.20
2018,05,29,08,41,10.20
2018,05,29,08,42,10.20
2018,05,29,08,43,10.30
2018,05,29,08,44,10.30
2018,05,29,08,45,10.40
2018,05,29,08,46,10.40
2018,05,29,08,47,10.50
2018,05,29,08,48,10.50
2018,05,29,08,49,10.50
2018,05,29,08,50,10.60
2018,05,29,08,51,10.60
2018,05,29,08,52,10.70
2018,05,29,08,53,10.70
2018,05,29,08,54,10.80
2018,05,29,08,55,10.70
2018,05,29,08,56,10.70
2018,05,29,08,57,10.70
2018,05,29,08,58,10.70
2018,05,29,08,59,10.70
2018,05,29,09,00,10.80
2018,05,29,09,01,10.80
2018,05,29,09,02,10.80
2018,05,29,09,03,10.80
2018,05,29,09,04,10.80
2018,05,29,09,05,10.90
2018,05,29,09,06,10.90
2018,05,29,09,07,10.90
2018,05,29,09,08,11.00
2018,05,29,09,09,11.10
2018,05,29,09,10,11.10
2018,05,29,09,11,11.20
2018,05,29,09,12,11.30
2018,05,29,09,13,11.30
2018,05,29,09,14,11.30
2018,05,29,09,15,11.40
2018,05,29,09,16,11.50
2018,05,29,09,17,11.60
2018,05,29,09,18,11.60
2018,05,29,09,19,11.70
2018,05,29,09,20,11.70
2018,05,29,09,21,11.80
2018,05,29,09,22,11.80
2018,05,29,09,23,11.90
2018,05,29,09,24,11.90
2018,05,29,09,25,12.00
2018,05,29,09,26,12.10
2018,05,29,09,27,12.10
2018,05,29,09,28,12.20
2018,05,29,09,29,12.30
2018,05,29,09,30,12.30
2018,05,29,09,31,12.40
2018,05,29,09,32,12.30
2018,05,29,09,33,12.30
2018,05,29,09,34,12.30
2018,05,29,09,35,12.30
2018,05,29,09,36,12.40
2018,05,29,09,37,12.40
2018,05,29,09,38,12.60
2018,05,29,09,39,12.60
2018,05,29,09,40,12.70
2018,05,29,09,41,12.60
2018,05,29,09,42,12.60
2018,05,29,09,43,12.60
2018,05,29,09,44,12.50
2018,05,29,09,45,12.40
2018,05,29,09,46,12.40
2018,05,29,09,47,12.30
2018,05,29,09,48,12.30
2018,05,29,09,49,12.30
2018,05,29,09,50,12.40
2018,05,29,09,51,12.40
2018,05,29,09,52,12.50
2018,05,29,09,53,12.50
2018,05,29,09,54,12.50
2018,05,29,09,55,12.60
2018,05,29,09,56,12.60
2018,05,29,09,57,12.70
2018,05,29,09,58,12.70
2018,05,29,09,59,12.80
2018,05,29,10,00,12.90
2018,05,29,10,01,13.10
2018,05,29,10,02,13.20
2018,05,29,10,03,13.20
2018,05,29,10,04,13.30
2018,05,29,10,05,13.40
2018,05,29,10,06,13.40
2018,05,29,10,07,13.40
2018,05,29,10,08,13.40
2018,05,29,10,09,13.50
2018,05,29,10,10,13.50
2018,05,29,10,11,13.60
2018,05,29,10,12,13.50
2018,05,29,10,13,13.50
2018,05,29,10,14,13.40
2018,05,29,10,15,13.40
2018,05,29,10,16,13.40
2018,05,29,10,17,13.30
2018,05,29,10,18,13.30
2018,05,29,10,19,13.30
2018,05,29,10,20,13.30
2018,05,29,10,21,13.30
2018,05,29,10,22,13.40
2018,05,29,10,23,13.50
2018,05,29,10,24,13.60
2018,05,29,10,25,13.60
2018,05,29,10,26,13.60
2018,05,29,10,27,13.50
2018,05,29,10,28,13.50
2018,05,29,10,29,13.40
2018,05,29,10,30,13.50
2018,05,29,10,31,13.50
2018,05,29,10,32,13.50
2018,05,29,10,33,13.60
2018,05,29,10,34,13.60
2018,05,29,10,35,13.60
2018,05,29,10,36,13.60
2018,05,29,10,37,13.60
2018,05,29,10,38,13.70
2018,05,29,10,39,13.70
2018,05,29,10,40,13.80
2018,05,29,10,41,13.80
2018,05,29,10,42,13.80
2018,05,29,10,43,13.70
2018,05,29,10,44,13.70
2018,05,29,10,45,13.70
2018,05,29,10,46,13.70
2018,05,29,10,47,13.80
2018,05,29,10,48,13.80
2018,05,29,10,49,13.90
2018,05,29,10,50,14.00
2018,05,29,10,51,14.10
2018,05,29,10,52,14.20
2018,05,29,10,53,14.30
2018,05,29,10,54,14.30
2018,05,29,10,55,14.30
2018,05,29,10,56,14.30
2018,05,29,10,57,14.30
2018,05,29,10,58,14.30
2018,05,29,10,59,14.30
2018,05,29,11,00,14.40
2018,05,29,11,01,14.40
2018,05,29,11,02,14.50
2018,05,29,11,03,14.60
2018,05,29,11,04,14.60
2018,05,29,11,05,14.60
2018,05,29,11,06,14.60
2018,05,29,11,07,14.60
2018,05,29,11,08,14.60
2018,05,29,11,09,14.70
2018,05,29,11,10,14.70
2018,05,29,11,11,14.80
2018,05,29,11,12,14.80
2018,05,29,11,13,14.80
2018,05,29,11,14,14.80
2018,05,29,11,15,14.80
2018,05,29,11,16,14.90
2018,05,29,11,17,14.90
2018,05,29,11,18,14.90
2018,05,29,11,19,14.90
2018,05,29,11,20,14.90
2018,05,29,11,21,14.90
2018,05,29,11,22,14.90
2018,05,29,11,23,14.90
2018,05,29,11,24,14.80
2018,05,29,11,25,14.80
2018,05,29,11,26,14.90
2018,05,29,11,27,14.90
2018,05,29,11,28,15.00
2018,05,29,11,29,15.10
2018,05,29,11,30,15.10
2018,05,29,11,31,15.20
2018,05,29,11,32,15.20
2018,05,29,11,33,15.20
2018,05,29,11,34,15.20
2018,05,29,11,35,15.20
2018,05,29,11,36,15.10
2018,05,29,11,37,15.10
2018,05,29,11,38,15.20
2018,05,29,11,39,15.20
2018,05,29,11,40,15.30
2018,05,29,11,41,15.20
2018,05,29,11,42,15.10
2018,05,29,11,43,15.00
2018,05,29,11,44,14.90
2018,05,29,11,45,14.90
2018,05,29,11,46,14.80
2018,05,29,11,47,14.80
2018,05,29,11,48,14.80
2018,05,29,11,49,14.80
2018,05,29,11,50,14.90
2018,05,29,11,51,14.90
2018,05,29,11,52,14.90
2018,05,29,11,53,14.90
2018,05,29,11,54,14.90
2018,05,29,11,55,14.90
2018,05,29,11,56,14.90
2018,05,29,11,57,14.90
2018,05,29,11,58,14.90
2018,05,29,11,59,14.90
2018,05,29,12,00,15.00
2018,05,29,12,01,15.00
2018,05,29,12,02,15.10
2018,05,29,12,03,15.20
2018,05,29,12,04,15.30
2018,05,29,12,05,15.40
2018,05,29,12,06,15.50
2018,05,29,12,07,15.60
2018,05,29,12,08,15.60
2018,05,29,12,09,15.60
2018,05,29,12,10,15.60
2018,05,29,12,11,15.50
2018,05,29,12,12,15.40
2018,05,29,12,13,15.40
2018,05,29,12,14,15.40
2018,05,29,12,15,15.40
2018,05,29,12,16,15.50
2018,05,29,12,17,15.50
2018,05,29,12,18,15.50
2018,05,29,12,19,15.60
2018,05,29,12,20,15.60
2018,05,29,12,21,15.60
2018,05,29,12,22,15.70
2018,05,29,12,23,15.80
2018,05,29,12,24,15.80
2018,05,29,12,25,15.90
2018,05,29,12,26,15.90
2018,05,29,12,27,16.00
2018,05,29,12,28,16.00
2018,05,29,12,29,16.00
2018,05,29,12,30,16.10
2018,05,29,12,31,16.10
2018,05,29,12,32,16.00
2018,05,29,12,33,15.90
2018,05,29,12,34,16.00
2018,05,29,12,35,16.00
2018,05,29,12,36,16.00
2018,05,29,12,37,16.00
2018,05,29,12,38,16.10
2018,05,29,12,39,16.20
2018,05,29,12,40,16.20
2018,05,29,12,41,16.20
2018,05,29,12,42,16.20
2018,05,29,12,43,16.20
2018,05,29,12,44,16.20
2018,05,29,12,45,16.20
2018,05,29,12,46,16.30
2018,05,29,12,47,16.30
2018,05,29,12,48,16.30
2018,05,29,12,49,16.40
2018,05,29,12,50,16.40
2018,05,29,12,51,16.50
2018,05,29,12,52,16.40
2018,05,29,12,53,16.40
2018,05,29,12,54,16.40
2018,05,29,12,55,16.50
2018,05,29,12,56,16.40
2018,05,29,12,57,16.50
2018,05,29,12,58,16.40
2018,05,29,12,59,16.40
2018,05,29,13,00,16.40
2018,05,29,13,01,16.50
2018,05,29,13,02,16.50
2018,05,29,13,03,16.60
2018,05,29,13,04,16.60
2018,05,29,13,05,16.60
2018,05,29,13,06,16.70
2018,05,29,13,07,16.80
2018,05,29,13,08,16.80
2018,05,29,13,09,16.80
2018,05,29,13,10,16.80
2018,05,29,13,11,16.80
2018,05,29,13,12,16.80
2018,05,29,13,13,16.80
2018,05,29,13,14,16.70
2018,05,29,13,15,16.60
2018,05,29,13,16,16.50
2018,05,29,13,17,16.50
2018,05,29,13,18,16.50
2018,05,29,13,19,16.60
2018,05,29,13,20,16.70
2018,05,29,13,21,16.70
2018,05,29,13,22,16.70
2018,05,29,13,23,16.60
2018,05,29,13,24,16.40
2018,05,29,13,25,16.40
2018,05,29,13,26,16.40
2018,05,29,13,27,16.50
2018,05,29,13,28,16.50
2018,05,29,13,29,16.50
2018,05,29,13,30,16.40
2018,05,29,13,31,16.40
2018,05,29,13,32,16.30
2018,05,29,13,33,16.30
2018,05,29,13,34,16.40
2018,05,29,13,35,16.50
2018,05,29,13,36,16.60
2018,05,29,13,37,16.60
2018,05,29,13,38,16.70
2018,05,29,13,39,16.70
2018,05,29,13,40,16.70
2018,05,29,13,41,16.80
2018,05,29,13,42,16.80
2018,05,29,13,43,16.90
2018,05,29,13,44,16.90
2018,05,29,13,45,16.90
2018,05,29,13,46,17.00
2018,05,29,13,47,17.00
2018,05,29,13,48,17.00
2018,05,29,13,49,17.00
2018,05,29,13,50,17.00
2018,05,29,13,51,17.10
2018,05,29,13,52,17.10
2018,05,29,13,53,17.10
2018,05,29,13,54,17.10
2018,05,29,13,55,17.10
2018,05,29,13,56,17.00
2018,05,29,13,57,16.90
2018,05,29,13,58,16.90
2018,05,29,13,59,16.90
2018,05,29,14,00,17.00
2018,05,29,14,01,17.00
2018,05,29,14,02,17.00
2018,05,29,14,03,16.90
2018,05,29,14,04,16.90
2018,05,29,14,05,17.00
2018,05,29,14,06,17.10
2018,05,29,14,07,17.20
2018,05,29,14,08,17.20
2018,05,29,14,09,17.20
2018,05,29,14,10,17.10
2018,05,29,14,11,17.00
2018,05,29,14,12,17.00
2018,05,29,14,13,16.90
2018,05,29,14,14,16.80
2018,05,29,14,15,16.80
2018,05,29,14,16,16.80
2018,05,29,14,17,16.90
2018,05,29,14,18,17.00
2018,05,29,14,19,17.00
2018,05,29,14,20,17.10
2018,05,29,14,21,17.10
2018,05,29,14,22,17.00
2018,05,29,14,23,16.90
2018,05,29,14,24,16.80
2018,05,29,14,25,16.80
2018,05,29,14,26,16.90
2018,05,29,14,27,16.90
2018,05,29,14,28,16.90
2018,05,29,14,29,16.90
2018,05,29,14,30,17.00
2018,05,29,14,31,17.00
2018,05,29,14,32,17.10
2018,05,29,14,33,17.10
2018,05,29,14,34,17.10
2018,05,29,14,35,17.10
2018,05,29,14,36,17.10
2018,05,29,14,37,17.00
2018,05,29,14,38,17.00
2018,05,29,14,39,17.00
2018,05,29,14,40,17.10
2018,05,29,14,41,17.10
2018,05,29,14,42,17.10
2018,05,29,14,43,17.10
2018,05,29,14,44,17.10
2018,05,29,14,45,17.00
2018,05,29,14,46,17.00
2018,05,29,14,47,17.10
2018,05,29,14,48,17.20
2018,05,29,14,49,17.30
2018,05,29,14,50,17.40
2018,05,29,14,51,17.50
2018,05,29,14,52,17.70
2018,05,29,14,53,17.70
2018,05,29,14,54,17.70
2018,05,29,14,55,17.70
2018,05,29,14,56,17.80
2018,05,29,14,57,17.80
2018,05,29,14,58,17.80
2018,05,29,14,59,17.80
2018,05,29,15,00,17.70
2018,05,29,15,01,17.70
2018,05,29,15,02,17.80
2018,05,29,15,03,17.80
2018,05,29,15,04,17.80
2018,05,29,15,05,17.80
2018,05,29,15,06,17.80
2018,05,29,15,07,17.90
2018,05,29,15,08,17.90
2018,05,29,15,09,17.90
2018,05,29,15,10,17.80
2018,05,29,15,11,17.70
2018,05,29,15,12,17.60
2018,05,29,15,13,17.60
2018,05,29,15,14,17.60
2018,05,29,15,15,17.50
2018,05,29,15,16,17.50
2018,05,29,15,17,17.40
2018,05,29,15,18,17.30
2018,05,29,15,19,17.30
2018,05,29,15,20,17.30
2018,05,29,15,21,17.30
2018,05,29,15,22,17.30
2018,05,29,15,23,17.30
2018,05,29,15,24,17.30
2018,05,29,15,25,17.40
2018,05,29,15,26,17.40
2018,05,29,15,27,17.40
2018,05,29,15,28,17.50
2018,05,29,15,29,17.50
2018,05,29,15,30,17.40
2018,05,29,15,31,17.50
2018,05,29,15,32,17.50
2018,05,29,15,33,17.40
2018,05,29,15,34,17.30
2018,05,29,15,35,17.30
2018,05,29,15,36,17.40
2018,05,29,15,37,17.40
2018,05,29,15,38,17.40
2018,05,29,15,39,17.40
2018,05,29,15,40,17.50
2018,05,29,15,41,17.50
2018,05,29,15,42,17.60
2018,05,29,15,43,17.60
2018,05,29,15,44,17.70
2018,05,29,15,45,17.70
2018,05,29,15,46,17.70
2018,05,29,15,47,17.70
2018,05,29,15,48,17.70
2018,05,29,15,49,17.70
2018,05,29,15,50,17.70
2018,05,29,15,51,17.70
2018,05,29,15,52,17.70
2018,05,29,15,53,17.60
2018,05,29,15,54,17.50
2018,05,29,15,55,17.40
2018,05,29,15,56,17.40
2018,05,29,15,57,17.40
2018,05,29,15,58,17.40
2018,05,29,15,59,17.40
2018,05,29,16,00,17.30
2018,05,29,16,01,17.30
2018,05,29,16,02,17.30
2018,05,29,16,03,17.40
2018,05,29,16,04,17.40
2018,05,29,16,05,17.50
2018,05,29,16,06,17.60
2018,05,29,16,07,17.70
2018,05,29,16,08,17.80
2018,05,29,16,09,17.80
2018,05,29,16,10,17.80
2018,05,29,16,11,17.80
2018,05,29,16,12,17.70
2018,05,29,16,13,17.70
2018,05,29,16,14,17.70
2018,05,29,16,15,17.70
2018,05,29,16,16,17.70
2018,05,29,16,17,17.80
2018,05,29,16,18,17.90
2018,05,29,16,19,17.90
2018,05,29,16,20,17.80
2018,05,29,16,21,17.80
2018,05,29,16,22,17.80
2018,05,29,16,23,17.80
2018,05,29,16,24,17.80
2018,05,29,16,25,17.80
2018,05,29,16,26,17.70
2018,05,29,16,27,17.70
2018,05,29,16,28,17.70
2018,05,29,16,29,17.60
2018,05,29,16,30,17.60
2018,05,29,16,31,17.60
2018,05,29,16,32,17.50
2018,05,29,16,33,17.50
2018,05,29,16,34,17.50
2018,05,29,16,35,17.50
2018,05,29,16,36,17.60
2018,05,29,16,37,17.60
2018,05,29,16,38,17.70
2018,05,29,16,39,17.70
2018,05,29,16,40,17.70
2018,05,29,16,41,17.80
2018,05,29,16,42,17.80
2018,05,29,16,43,17.90
2018,05,29,16,44,17.90
2018,05,29,16,45,17.90
2018,05,29,16,46,17.80
2018,05,29,16,47,17.80
2018,05,29,16,48,17.80
2018,05,29,16,49,17.70
2018,05,29,16,50,17.70
2018,05,29,16,51,17.70
2018,05,29,16,52,17.70
2018,05,29,16,53,17.70
2018,05,29,16,54,17.60
2018,05,29,16,55,17.50
2018,05,29,16,56,17.40
2018,05,29,16,57,17.40
2018,05,29,16,58,17.40
2018,05,29,16,59,17.50
2018,05,29,17,00,17.50
2018,05,29,17,01,17.60
2018,05,29,17,02,17.60
2018,05,29,17,03,17.70
2018,05,29,17,04,17.70
2018,05,29,17,05,17.70
2018,05,29,17,06,17.70
2018,05,29,17,07,17.80
2018,05,29,17,08,17.80
2018,05,29,17,09,17.70
2018,05,29,17,10,17.70
2018,05,29,17,11,17.70
2018,05,29,17,12,17.70
2018,05,29,17,13,17.70
2018,05,29,17,14,17.70
2018,05,29,17,15,17.70
2018,05,29,17,16,17.70
2018,05,29,17,17,17.70
2018,05,29,17,18,17.80
2018,05,29,17,19,17.80
2018,05,29,17,20,17.90
2018,05,29,17,21,17.90
2018,05,29,17,22,17.80
2018,05,29,17,23,17.70
2018,05,29,17,24,17.60
2018,05,29,17,25,17.60
2018,05,29,17,26,17.60
2018,05,29,17,27,17.60
2018,05,29,17,28,17.60
2018,05,29,17,29,17.50
2018,05,29,17,30,17.40
2018,05,29,17,31,17.40
2018,05,29,17,32,17.30
2018,05,29,17,33,17.30
2018,05,29,17,34,17.30
2018,05,29,17,35,17.30
2018,05,29,17,36,17.40
2018,05,29,17,37,17.40
2018,05,29,17,38,17.50
2018,05,29,17,39,17.60
2018,05,29,17,40,17.60